Retour au catalogue

STARLINK-33825

ActifCommunicationsVLEO
NORAD 63505·PAYLOAD·🇺🇸 United States

Lancé Apr 7, 2025 depuis Vandenberg Space Force Base

Loading…

Prochains Passages (prochaines 24 heures)

TLE

FraisSource: CelesTrak SupGP

Époque: Sep 14, 2026, 21:36 UTC

1 63505C 25071N   26257.90048611 -.00012192  00000+0 -36035-3 0  2578
2 63505  53.1603 339.9969 0001166  78.7015 290.3985 15.34385150    11

Suivez STARLINK-33825 en temps réel avec AllMySat

Download on the App Store